User: anonymous   Login
Location: Nebula Knoll Observatory
(43.6666°N, 71.0000°W)
Time: 03:08:23
(UTC-04:00)
Language:

SeaSat 1 - Orbit

View from above orbital plane
View from above orbital plane
View from above satellite
View from above satellite

Ground track
Ground track

The orbit data is extracted from the following two-line orbital elements,

1 10967U 78064A   15116.81751422  .00000446  00000-0  17226-3 0  9997
2 10967 107.9966 105.4732 0001891 243.6571 116.4379 14.43363888933703
Epoch (UTC): 26 April 2015 19:37:13
Eccentricity: 0.0001891
inclination: 107.9966°
perigee height: 746 km
apogee height: 749 km
right ascension of ascending node: 105.4732°
argument of perigee: 243.6571°
revolutions per day: 14.43363888
mean anomaly at epoch: 116.4379°
orbit number at epoch: 93370

The dashed part of the orbit path shows where the satellite is in the earth's shadow,  

DLR